Flag for Equatorial Guinea Weather past 2 weeks in Ebebiyín, Equatorial Guinea

Now
72 °F

Low clouds.


Feels Like: 69 °F
Forecast: 70 / 86 °F
Wind: 1 mph from Southeast

Location: Yaounde Airport


UV Index: 3 (Moderate)

Visibility: N/A


Pressure: 29.98 "Hg

Humidity: 88%

Dew point: 68 °F

Location of EbebiyínLocation

Historic Weather in Ebebiyín

°F

Ebebiyín temperature yesterday

Maximum temperature yesterday: 88 °F (at 1:00 PM)
Minimum temperature yesterday: 68 °F (at 1:00 AM)
Average temperature yesterday: 73 °F

Past Weeks' High & Low Weather Summary

 TemperatureHumidityPressure
High88 °F (Apr 4, 3:00 PM)100% (Apr 11, 6:00 AM)30.07 "Hg (Apr 11, 6:00 AM)
Low64 °F (Apr 14, 6:00 AM)49% (Apr 11, 3:00 PM)29.86 "Hg (Apr 12, 3:00 PM)
Average76 °F80%29.97 "Hg
* Reported Apr 4 6:00 AM — Apr 19 6:00 AM, Ebebiyín, Weather by CustomWeather, © 2014

Note: Actual official high and low records may vary slightly from our data, if they occured in-between our weather recording intervals... More about our weather records

Advertising

Historic Weather Conditions — Data for Previous 24 hours

 ConditionsComfort  
Time TempWeatherWind HumidityBarometerVisibility
6:00 AM
Apr 19
72 °FPartly cloudy.No wind88%29.98 "Hg5 mi
5:00 AM72 °FPartly cloudy.2 mph94%29.95 "Hg5 mi
4:00 AM72 °FPartly cloudy.6 mph94%29.95 "Hg5 mi
3:00 AM72 °FPartly cloudy.2 mph94%29.95 "Hg5 mi
1:00 AM72 °FPartly cloudy.No wind94%29.98 "Hg5 mi
12:00 AM72 °FPartly cloudy.3 mph94%29.98 "Hg5 mi
11:00 PM
Apr 18
72 °FPartly cloudy.6 mph94%29.98 "Hg5 mi
10:00 PM72 °FPartly cloudy.5 mph94%29.98 "Hg5 mi
9:00 PM72 °FPartly cloudy.3 mph88%29.98 "HgN/A
8:00 PM70 °FThunderstorms. Partly cloudy.No wind94%29.95 "HgN/A
7:00 PM72 °FThunderstorms. Partly cloudy.No wind88%29.92 "HgN/A
6:00 PM72 °FThunderstorms. Broken clouds.2 mph88%29.92 "HgN/A
5:00 PM72 °FThunderstorms. Broken clouds.6 mph88%29.89 "HgN/A
4:00 PM72 °FThunderstorms. Broken clouds.3 mph94%29.89 "Hg5 mi
3:00 PM73 °FThunderstorms. Broken clouds.3 mph89%29.92 "Hg5 mi
2:00 PM75 °FThunderstorms. Broken clouds.No wind89%29.92 "Hg5 mi
1:00 PM88 °FPartly sunny.3 mph55%29.92 "HgN/A
12:00 PM86 °FPartly sunny.3 mph62%29.98 "HgN/A
11:00 AM82 °FPartly sunny.3 mph66%30.01 "HgN/A
10:00 AM81 °FPartly sunny.No wind74%30.01 "HgN/A
9:00 AM75 °FPartly sunny.3 mph83%30.01 "HgN/A
8:00 AM72 °FBroken clouds.3 mph94%30.01 "Hg5 mi
Weather by CustomWeather, © 2014

See weather overview